Goodland, KS

6:35 AM MDT on March 23, 2017 (GMT -0600)
Renner-Goodland Municipal

Weather History for KGLD - February, 2012

Change the Weather History Date:

Friday, February 10, 2012

  Actual Average Record
Temperature  
Mean Temperature 22 °F 31 °F  
Max Temperature 30 °F 44 °F 87 °F (2017)
Min Temperature 13 °F 18 °F -17 °F (1981)
Degree Days  
Heating Degree Days 43 34  
Month to date heating degree days 348 346  
Since 1 July heating degree days 3579 3849  
Cooling Degree Days 0 0  
Month to date cooling degree days 0 0  
Year to date cooling degree days 0 0  
Moisture  
Dew Point 15 °F    
Average Humidity 71    
Maximum Humidity 84    
Minimum Humidity 58    
Precipitation  
Precipitation 0.03 in 0.01 in 0.50 in (1993)
Month to date precipitation 0.31 0.15  
Year to date precipitation 0.40 0.53  
Snow  
Snow 0.60 in 0.30 in - ()
Month to date snowfall 3.7 2.2  
Since 1 July snowfall 15.4 20.8  
Snow Depth 0.00 in    
Sea Level Pressure  
Sea Level Pressure 30.35 in    
Wind  
Wind Speed 9 mph (NE)    
Max Wind Speed 18 mph    
Max Gust Speed 22 mph    
Visibility 6 miles    
Events Snow    
T = Trace of Precipitation, MM = Missing Value Source: NWS Daily Summary

Daily Weather History Graph

Daily Weather History Graph

Search for Another Location

Airport or City:

Trip Planner

Search our weather history database for the weather conditions in past years. The results will help you decide how hot, cold, wet, or windy it might be!

Date:

Astronomy

Feb. 10, 2012 Rise Set
Actual Time 6:45 AM MST 5:17 PM MST
Civil Twilight 6:17 AM MST 5:45 PM MST
Nautical Twilight 5:45 AM MST 6:16 PM MST
Astronomical Twilight 5:14 AM MST 6:48 PM MST
Moon 8:56 PM MST (2/10) 7:56 AM MST (2/10)
Length of Visible Light 11h 27m
Length of Day
10h 32m
Waning Gibbous, 89% of the Moon is Illuminated
Feb 10
Waning Gibbous
Feb 14
Last Quarter
Feb 21
New
Feb 29
First Quarter
Mar 8
Full

Hourly Weather History & Observations

Time (MST) Temp. Windchill Dew Point Humidity Pressure Visibility Wind Dir Wind Speed Gust Speed Precip Events Conditions
12:53 AM 21.0 °F 14.6 °F 17.1 °F 85% 30.23 in 10.0 mi NNW 4.6 mph - N/A   Clear
1:53 AM 19.9 °F 13.4 °F 15.1 °F 81% 30.24 in 10.0 mi NNW 4.6 mph - N/A   Clear
2:53 AM 17.1 °F 10.0 °F 12.9 °F 84% 30.23 in 10.0 mi NW 4.6 mph - N/A   Clear
3:53 AM 16.0 °F 10.4 °F 10.9 °F 81% 30.25 in 10.0 mi NW 3.5 mph - N/A   Clear
4:53 AM 15.1 °F 6.4 °F 10.9 °F 84% 30.26 in 10.0 mi NW 5.8 mph - N/A   Clear
5:53 AM 15.1 °F 9.4 °F 10.9 °F 84% 30.28 in 10.0 mi NNW 3.5 mph - N/A   Clear
6:53 AM 15.1 °F 9.4 °F 10.9 °F 84% 30.32 in 10.0 mi North 3.5 mph - N/A   Clear
7:53 AM 19.0 °F 11.1 °F 15.1 °F 85% 30.31 in 10.0 mi North 5.8 mph - N/A   Overcast
8:53 AM 21.0 °F 10.6 °F 17.1 °F 85% 30.33 in 10.0 mi NNE 9.2 mph - N/A   Overcast
9:53 AM 24.1 °F 13.7 °F 17.1 °F 75% 30.34 in 10.0 mi NNE 10.4 mph - N/A   Overcast
10:53 AM 26.1 °F 16.2 °F 16.0 °F 66% 30.34 in 10.0 mi NNE 10.4 mph - N/A   Overcast
11:53 AM 28.0 °F 18.6 °F 17.1 °F 63% 30.33 in 10.0 mi North 10.4 mph - N/A   Overcast
12:53 PM 30.0 °F 21.1 °F 17.1 °F 59% 30.34 in 10.0 mi NE 10.4 mph - N/A   Overcast
1:53 PM 28.0 °F 18.6 °F 17.1 °F 63% 30.35 in 10.0 mi NNE 10.4 mph - N/A   Overcast
2:17 PM 26.6 °F 16.8 °F 17.6 °F 69% 30.25 in 10.0 mi NE 10.4 mph - N/A   Mostly Cloudy
2:53 PM 25.0 °F 14.2 °F 19.0 °F 78% 30.38 in 5.0 mi NE 11.5 mph - 0.00 in Snow Light Snow
3:02 PM 24.8 °F 14.6 °F 19.4 °F 80% 30.27 in 5.0 mi NNE 10.4 mph - 0.00 in Snow Light Snow
3:53 PM 24.1 °F 14.4 °F 18.0 °F 77% 30.40 in 8.0 mi ENE 9.2 mph - 0.00 in   Overcast
4:01 PM 23.0 °F 12.4 °F 17.6 °F 80% 30.27 in 5.0 mi NE 10.4 mph - 0.00 in Snow Light Snow
4:36 PM 23.0 °F 12.4 °F 17.6 °F 80% 30.28 in 2.5 mi NE 10.4 mph - 0.00 in Snow Light Snow
4:43 PM 23.0 °F 12.4 °F 17.6 °F 80% 30.28 in 3.0 mi ENE 10.4 mph - 0.00 in Snow Light Snow
4:53 PM 23.0 °F 12.4 °F 18.0 °F 81% 30.41 in 4.0 mi ENE 10.4 mph - 0.00 in Snow Light Snow
5:03 PM 21.2 °F 10.9 °F 17.6 °F 86% 30.29 in 4.0 mi NE 9.2 mph - 0.00 in Snow Light Snow
5:14 PM 21.2 °F 10.1 °F 17.6 °F 86% 30.29 in 3.0 mi NE 10.4 mph - 0.00 in Snow Light Snow
5:53 PM 21.0 °F 9.3 °F 17.1 °F 85% 30.44 in 8.0 mi NE 11.5 mph - 0.00 in   Overcast
6:30 PM 21.2 °F 10.1 °F 17.6 °F 86% 30.31 in 5.0 mi ENE 10.4 mph - 0.00 in Snow Light Snow
6:53 PM 19.9 °F 7.3 °F 17.1 °F 89% 30.47 in 6.0 mi NE 12.7 mph - 0.00 in Snow Light Snow
7:07 PM 19.4 °F 7.2 °F 15.8 °F 86% 30.32 in 6.0 mi ENE 11.5 mph - 0.00 in Snow Light Snow
7:24 PM 19.4 °F 6.0 °F 15.8 °F 86% 30.33 in 7.0 mi ENE 13.8 mph - 0.00 in Snow Light Snow
7:53 PM 18.0 °F 5.4 °F 15.1 °F 88% 30.48 in 8.0 mi NE 11.5 mph - 0.00 in   Mostly Cloudy
8:42 PM 17.6 °F 2.7 °F 12.2 °F 79% 30.36 in 2.5 mi ENE 16.1 mph - 0.00 in Snow Light Snow
8:53 PM 16.0 °F 0.6 °F 12.9 °F 88% 30.51 in 2.5 mi NE 16.1 mph - 0.00 in Snow Light Snow
9:23 PM 15.8 °F 1.4 °F 10.4 °F 79% 30.38 in 2.5 mi NE 13.8 mph - 0.00 in Snow Light Snow
9:39 PM 15.8 °F 3.4 °F 10.4 °F 79% 30.38 in 3.0 mi ENE 10.4 mph - 0.01 in Snow Light Snow
9:53 PM 15.1 °F 1.8 °F 10.9 °F 84% 30.52 in 5.0 mi ENE 11.5 mph - 0.01 in Snow Light Snow
10:23 PM 15.8 °F 6.1 °F 10.4 °F 79% 30.40 in 3.0 mi NE 6.9 mph - 0.00 in Snow Light Snow
10:32 PM 15.8 °F 5.1 °F 10.4 °F 79% 30.39 in 2.5 mi NE 8.1 mph - 0.00 in Snow Light Snow
10:50 PM 15.8 °F 4.2 °F 10.4 °F 79% 30.40 in 3.0 mi NE 9.2 mph - 0.01 in Snow Light Snow
10:53 PM 15.1 °F 3.3 °F 10.9 °F 84% 30.53 in 3.0 mi NE 9.2 mph - 0.01 in Snow Light Snow
11:02 PM 15.8 °F 4.2 °F 10.4 °F 79% 30.41 in 2.5 mi NE 9.2 mph - 0.00 in Snow Light Snow
11:33 PM 14.0 °F 2.0 °F 10.4 °F 86% 30.41 in 3.0 mi NE 9.2 mph - 0.00 in Snow Light Snow
11:53 PM 14.0 °F 0.5 °F 10.0 °F 84% 30.54 in 5.0 mi ENE 11.5 mph - 0.01 in Snow Light Snow